TimeCDT,TemperatureF,Dew PointF,Humidity,Sea Level PressureIn,VisibilityMPH,Wind Direction,Wind SpeedMPH,Gust SpeedMPH,PrecipitationIn,Events,Conditions,WindDirDegrees,DateUTC
12:54 AM,37.9,34.0,86,30.23,9.0,NW,5.8,-,N/A,,Clear,320,2011-10-01 05:54:00
1:54 AM,35.1,32.0,89,30.24,10.0,Calm,Calm,-,N/A,,Clear,0,2011-10-01 06:54:00
4:54 AM,33.1,28.9,85,30.26,10.0,Calm,Calm,-,N/A,,Clear,0,2011-10-01 09:54:00
5:54 AM,32.0,28.0,85,30.27,10.0,Calm,Calm,-,N/A,,Clear,0,2011-10-01 10:54:00
6:54 AM,30.9,28.9,92,30.29,10.0,Calm,Calm,-,N/A,,Clear,0,2011-10-01 11:54:00
7:54 AM,34.0,30.0,85,30.31,10.0,Calm,Calm,-,N/A,,Clear,0,2011-10-01 12:54:00
8:54 AM,46.0,37.9,73,30.32,10.0,Calm,Calm,-,N/A,,Clear,0,2011-10-01 13:54:00
9:54 AM,55.0,39.0,55,30.32,10.0,SSE,9.2,-,N/A,,Clear,160,2011-10-01 14:54:00
10:54 AM,61.0,37.9,42,30.32,10.0,SE,10.4,-,N/A,,Clear,140,2011-10-01 15:54:00
1:54 PM,71.1,37.0,29,30.25,7.0,SE,11.5,-,N/A,,Clear,130,2011-10-01 18:54:00
2:54 PM,72.0,36.0,27,30.22,10.0,SSE,13.8,19.6,N/A,,Clear,150,2011-10-01 19:54:00
3:54 PM,73.0,36.0,26,30.21,10.0,SE,10.4,16.1,N/A,,Clear,140,2011-10-01 20:54:00
4:54 PM,72.0,37.0,28,30.20,10.0,SE,12.7,-,N/A,,Clear,140,2011-10-01 21:54:00
5:54 PM,70.0,35.1,28,30.19,10.0,SSE,10.4,-,N/A,,Clear,160,2011-10-01 22:54:00
6:54 PM,64.9,36.0,34,30.19,10.0,SSE,6.9,-,N/A,,Clear,150,2011-10-01 23:54:00
7:54 PM,55.0,37.0,51,30.19,10.0,SE,5.8,-,N/A,,Clear,140,2011-10-02 00:54:00
8:54 PM,51.1,36.0,56,30.19,10.0,SSW,3.5,-,N/A,,Clear,200,2011-10-02 01:54:00
9:54 PM,44.1,36.0,73,30.20,9.0,South,3.5,-,N/A,,Clear,170,2011-10-02 02:54:00
10:54 PM,46.0,37.0,71,30.19,10.0,South,3.5,-,N/A,,Clear,170,2011-10-02 03:54:00
11:54 PM,46.0,37.0,71,30.19,9.0,SSW,3.5,-,N/A,,Clear,200,2011-10-02 04:54:00